{"data":{"norad_id":33436,"intl_designator":"2008-057A","name":"ASTRA 1M","alt_names":[],"object_type":"PAYLOAD","status":"ACTIVE","operator":null,"country":"SES","launch_date":"2008-11-05","launch_site_code":"TYMSC","launch_vehicle":null,"mission":null,"orbit_class":"UNKNOWN","rcs_meters":10.0237,"size_class":null,"mass_kg":null,"dimensions":null,"purposes":["comms"],"wikipedia_slug":null,"has_3d_model":false,"image_url":null,"decayed_at":null,"tle_current":{"epoch":"2026-09-19T17:03:50.782752Z","epoch_age_seconds":82615,"freshness":"FRESH","line1":"1 33436U 08057A   26262.71100443  .00000117  00000+0  00000+0 0  9994","line2":"2 33436   0.5332  82.5743 0003728  94.2046  97.2154  1.00274924 46689","mean_motion":1.00274924,"eccentricity":0.0003728,"inclination_deg":0.5332,"raan_deg":82.5743,"arg_perigee_deg":94.2046,"mean_anomaly_deg":97.2154,"bstar":0,"rev_number":4668,"period_min":1436.051948541,"perigee_km":35769.996324469,"apogee_km":35801.433692526,"semimajor_km":42163.852008497,"source":"CELESTRAK","updated_at":"2026-09-20T09:00:35.638122Z"}}}